Location: Unspecified
(43.4680°N, 87.1740°E)
Time: 13:58:49
(UTC+00:00)

Okean 2 - Pass Details

Date: 06 August 2021
Orbit: 558 x 577 km, 82.5° (Epoch: 18 September)

Event Time Altitude Azimuth Distance (km) Brightness Sun altitude
Rises 20:28:05 0° 330° (NNW) 2,798 7.3 -23.0°
Reaches altitude 10° 20:31:23 10° 302° (WNW) 1,890 6.0 -22.7°
Enters shadow 20:31:36 11° 300° (WNW) 1,854 5.9 -22.6°
